Shelton, WA
on Tuesday, February 12, 2013

Tuesday
Previous Day Next Day
Daily Summary
 ActualAverage (KOLM)Record (KOLM)
Temperature
Mean Temperature °F 41°F  
Max Temperature 48°F 49°F 62°F (1963)
Min Temperature 42°F 33°F 16°F (1949)
Degree Days
Heating Degree Days 20 24  
Month to date heating degree days 289  
Since 1 July heating degree days 3340  
Cooling Degree Days 0 0  
Month to date cooling degree days 0  
Year to date cooling degree days 0  
Moisture
Dew Point 45°F   
Average Humidity 96    
Maximum Humidity 100    
Minimum Humidity 87    
Precipitation
Precipitation 0.08 in 0.19 in 1.59 in (1954)
Month to date precipitation 2.42  
Year to date precipitation 10.26  
Wind
Wind Speed 9 mph   
Max Wind Speed 17 mph   
Max Gust Speed 21 mph   
Visibility 10 miles   
Events Rain   

Key: T is trace of precipitation, MM is missing value
Source: NWS Daily Summary
Time(PST)TemperatureDew PointHumidity Pressure Visibility Wind DirectionWind SpeedGust SpeedPrecipitationEvents Conditions
12:20 AM 42.8°F 42.8°F 100% 30.33 in 10.0 miles SW 8.1 mph - N/A   Overcast
12:53 AM 43.0°F 43.0°F 100% 30.34 in 10.0 miles SW 5.8 mph - N/A   Overcast
1:53 AM 43.0°F 42.1°F 97% 30.34 in 10.0 miles SW 6.9 mph - N/A   Overcast
2:53 AM 43.0°F 42.1°F 97% 30.35 in 10.0 miles WSW 9.2 mph - N/A   Overcast
3:53 AM 43.0°F 43.0°F 100% 30.34 in 10.0 miles SSW 5.8 mph - N/A   Overcast
4:53 AM 43.0°F 42.1°F 97% 30.35 in 10.0 miles SW 6.9 mph - N/A   Overcast
5:53 AM 43.0°F 42.1°F 97% 30.35 in 10.0 miles WSW 5.8 mph - N/A   Overcast
6:23 AM 42.8°F 42.8°F 100% 30.34 in 10.0 miles WSW 6.9 mph - N/A   Overcast
6:53 AM 43.0°F 42.1°F 97% 30.35 in 10.0 miles SW 5.8 mph - N/A   Overcast
7:27 AM 44.6°F 42.8°F 93% 30.35 in 10.0 miles SW 6.9 mph - N/A   Overcast
7:53 AM 44.1°F 43.0°F 96% 30.37 in 10.0 miles SW 5.8 mph - N/A   Overcast
8:46 AM 44.6°F 42.8°F 93% 30.36 in 10.0 miles SW 8.1 mph - N/A   Overcast
8:53 AM 44.1°F 44.1°F 100% 30.38 in 10.0 miles SW 9.2 mph - N/A   Overcast
9:24 AM 44.6°F 44.6°F 100% 30.37 in 10.0 miles SW 9.2 mph - N/A   Overcast
9:53 AM 45.0°F 44.1°F 97% 30.38 in 10.0 miles SW 9.2 mph - N/A   Overcast
10:05 AM 46.4°F 44.6°F 93% 30.37 in 10.0 miles SW 10.4 mph - N/A   Overcast
10:53 AM 46.0°F 45.0°F 96% 30.40 in 10.0 miles SW 11.5 mph - N/A   Overcast
11:45 AM 46.4°F 44.6°F 93% 30.38 in 10.0 miles SW 12.7 mph - N/A   Overcast
11:53 AM 46.9°F 46.0°F 97% 30.39 in 10.0 miles SW 12.7 mph - N/A   Overcast
12:53 PM 46.9°F 44.1°F 90% 30.38 in 10.0 miles WSW 17.3 mph 20.7 mph N/A   Overcast
1:42 PM 48.2°F 44.6°F 87% 30.36 in 10.0 miles SW 13.8 mph - N/A   Overcast
1:51 PM 46.4°F 44.6°F 93% 30.36 in 10.0 miles SW 11.5 mph - N/A   Overcast
1:53 PM 46.9°F 45.0°F 93% 30.37 in 10.0 miles SW 11.5 mph - N/A   Overcast
2:53 PM 48.0°F 45.0°F 89% 30.34 in 10.0 miles SSW 12.7 mph 19.6 mph N/A   Overcast
3:53 PM 48.0°F 46.0°F 93% 30.35 in 10.0 miles SW 10.4 mph - N/A   Overcast
4:01 PM 48.2°F 46.4°F 93% 30.34 in 10.0 miles SW 12.7 mph - N/A   Overcast
4:14 PM 48.2°F 46.4°F 93% 30.34 in 10.0 miles SW 11.5 mph - N/A   Overcast
4:41 PM 46.4°F 46.4°F 100% 30.34 in 8.0 miles SW 10.4 mph - 0.01 in Rain Light Rain
4:53 PM 46.9°F 46.0°F 97% 30.36 in 10.0 miles SW 13.8 mph - 0.01 in   Overcast
5:11 PM 46.4°F 46.4°F 100% 30.34 in 10.0 miles SW 11.5 mph - N/A   Overcast
5:48 PM 46.4°F 46.4°F 100% 30.34 in 10.0 miles SW 10.4 mph - 0.00 in   Overcast
5:53 PM 46.9°F 46.0°F 97% 30.36 in 10.0 miles SW 11.5 mph - 0.00 in   Overcast
6:02 PM 46.4°F 46.4°F 100% 30.34 in 10.0 miles SSW 11.5 mph - N/A   Overcast
6:17 PM 46.4°F 44.6°F 93% 30.34 in 10.0 miles SW 10.4 mph - N/A   Overcast
6:49 PM 46.4°F 46.4°F 100% 30.34 in 10.0 miles SSW 8.1 mph - 0.01 in Rain Light Rain
6:53 PM 46.9°F 46.0°F 97% 30.36 in 10.0 miles SSW 10.4 mph - 0.01 in Rain Light Rain
7:11 PM 46.4°F 46.4°F 100% 30.34 in 10.0 miles SW 10.4 mph - 0.00 in   Overcast
7:53 PM 46.0°F 45.0°F 96% 30.35 in 10.0 miles SW 13.8 mph - 0.00 in   Overcast
8:09 PM 46.4°F 44.6°F 93% 30.34 in 10.0 miles SW 11.5 mph - N/A   Overcast
8:29 PM 46.4°F 44.6°F 93% 30.34 in 10.0 miles SW 8.1 mph - 0.01 in Rain Light Rain
8:40 PM 46.4°F 46.4°F 100% 30.34 in 10.0 miles SSW 5.8 mph - 0.01 in Rain Light Rain
8:53 PM 46.0°F 45.0°F 96% 30.35 in 10.0 miles SW 8.1 mph - 0.02 in Rain Light Rain
9:09 PM 46.4°F 44.6°F 93% 30.33 in 10.0 miles SW 13.8 mph - 0.01 in Rain Light Rain
9:16 PM 46.4°F 44.6°F 93% 30.33 in 10.0 miles SSW 8.1 mph - 0.01 in Rain Light Rain
9:21 PM 46.4°F 44.6°F 93% 30.33 in 10.0 miles SSW 9.2 mph - 0.01 in Rain Light Rain
9:53 PM 46.0°F 45.0°F 96% 30.33 in 10.0 miles SSW 13.8 mph - 0.03 in Rain Light Rain
10:08 PM 46.4°F 44.6°F 93% 30.31 in 10.0 miles SSW 12.7 mph - 0.00 in   Overcast
10:53 PM 46.0°F 45.0°F 96% 30.33 in 10.0 miles SSW 15.0 mph - 0.01 in   Overcast
11:06 PM 46.4°F 44.6°F 93% 30.32 in 10.0 miles SSW 11.5 mph - N/A   Overcast
11:14 PM 46.4°F 44.6°F 93% 30.32 in 10.0 miles SSW 12.7 mph - N/A   Overcast
11:53 PM 46.9°F 45.0°F 93% 30.33 in 10.0 miles SSW 13.8 mph - N/A   Overcast
Moon Phase
Feb. 12 Feb. 17 Feb. 25 Mar. 04 Mar. 11
Sunrise:07:21 AM (PST) Moon Rise:08:07 AM (PST)2/12
Sunset:05:32 PM (PST) Moon Set:08:56 PM (PST)2/12

Copyright © 2014 The Weather Underground, Inc.